Weather History for VANP - October, 2011

Change the Weather History Date:

Wednesday, October 5, 2011

  Actual Average Record
Temperature  
Mean Temperature 80 °F -  
Max Temperature 93 °F 90 °F - ()
Min Temperature 67 °F 67 °F - ()
Cooling Degree Days 15    
Growing Degree Days 30 (Base 50)    
Moisture  
Dew Point 67 °F    
Average Humidity 59    
Maximum Humidity 92    
Minimum Humidity 31    
Precipitation  
Precipitation 0.00 in 0.08 in - ()
Sea Level Pressure  
Sea Level Pressure 29.85 in    
Wind  
Wind Speed 3 mph ()    
Max Wind Speed 6 mph    
Max Gust Speed -    
Visibility 3.0 miles    
Events      
T = Trace of Precipitation, MM = Missing Value Source: Averaged Metar Reports

Daily Weather History Graph

Daily Weather History Graph

Search for Another Location

Airport or City:

Trip Planner

Search our weather history database for the weather conditions in past years. The results will help you decide how hot, cold, wet, or windy it might be!

Date:

Astronomy

Oct. 05, 2011 Rise Set
Actual Time 6:05 AM IST 5:58 PM IST
Civil Twilight 5:43 AM IST 6:20 PM IST
Nautical Twilight 5:17 AM IST 6:46 PM IST
Astronomical Twilight 4:52 AM IST 7:12 PM IST
Moon 1:38 PM IST (10/5) No Moon Set
Length of Visible Light 12h 37m
Length of Day
11h 52m
Waxing Gibbous, 62% of the Moon is Illuminated
Oct 5
Waxing Gibbous
Oct 12
Full
Oct 20
Last Quarter
Oct 27
New
Nov 2
First Quarter

Hourly Weather History & Observations

Time (IST) Temp. Heat Index Dew Point Humidity Pressure Visibility Wind Dir Wind Speed Gust Speed Precip Events Conditions
2:30 AM 69 °F - 65 °F 84% 29.79 in 2 mi West 2.3 mph - -   Haze
3:10 AM 71.6 °F - 64.4 °F 78% 29.80 in 3.1 mi WNW 2.3 mph - N/A   Haze
5:10 AM 71.6 °F - 64.4 °F 78% 29.83 in 2.2 mi NW 3.5 mph - N/A   Haze
5:30 AM 68 °F - 66 °F 92% 29.83 in 1 mi NNW 2.3 mph - -   Haze
6:40 AM 73.4 °F - 64.4 °F 73% 29.89 in 2.5 mi North 3.5 mph - N/A   Haze
8:10 AM 78.8 °F - 66.2 °F 65% 29.92 in 3.7 mi North 4.6 mph - N/A   Partly Cloudy
8:30 AM 80 °F - 68 °F 59% 29.87 in 2 mi NNE 3.5 mph - -  
9:10 AM 84.2 °F 88.4 °F 69.8 °F 62% 29.92 in 3.7 mi NE 3.5 mph - N/A   Unknown
10:10 AM 89.6 °F 94.7 °F 69.8 °F 52% 29.92 in 3.7 mi NNE 4.6 mph - N/A   Unknown
11:10 AM 91.4 °F 95.4 °F 68.0 °F 46% 29.89 in 3.7 mi NW 4.6 mph - N/A   Unknown
11:30 AM 90 °F - 66 °F 36% 29.84 in 2 mi ENE 3.5 mph - -  
1:10 PM 95.0 °F 99.5 °F 68.0 °F 41% 29.86 in - North - - N/A   Unknown
2:10 PM 95.0 °F 103.2 °F 71.6 °F 47% 29.83 in 3.7 mi East 3.5 mph - N/A   Partly Cloudy
2:30 PM 91 °F - 64 °F 31% 29.76 in 2 mi East 3.5 mph - -   Scattered Clouds
3:10 PM 95.0 °F 98.5 °F 66.2 °F 39% 29.80 in 3.7 mi East 5.8 mph - N/A   Partly Cloudy
4:10 PM 95.0 °F 97.0 °F 64.4 °F 36% 29.80 in 3.7 mi East 2.3 mph - N/A   Partly Cloudy
5:30 PM 86 °F - 65 °F 39% 29.77 in 2 mi ESE 3.5 mph - -   Scattered Clouds
6:10 PM 86.0 °F 90.4 °F 69.8 °F 58% 29.83 in 3.7 mi ESE 3.5 mph - N/A   Partly Cloudy
7:10 PM 84.2 °F 87.3 °F 68.0 °F 58% 29.83 in 3.7 mi ESE 2.3 mph - N/A   Partly Cloudy
7:40 PM 82.4 °F 85.4 °F 68.0 °F 62% 29.83 in 3.7 mi ESE 4.6 mph - N/A   Partly Cloudy
8:10 PM 80.6 °F 82.7 °F 66.2 °F 61% 29.86 in 3.7 mi East 4.6 mph - N/A   Clear
8:30 PM 79 °F - 69 °F 64% 29.82 in 2 mi East 4.6 mph - -  
8:40 PM 80.6 °F 83.2 °F 68.0 °F 65% 29.89 in 3.7 mi ESE 4.6 mph - N/A   Clear
9:10 PM 80.6 °F 82.7 °F 66.2 °F 61% 29.89 in 3.7 mi ESE 3.5 mph - N/A   Clear
10:10 PM - - - N/A% 29.89 in 3.7 mi ESE 2.3 mph - N/A   Partly Cloudy
10:40 PM 78.8 °F - 68.0 °F 69% 29.89 in 3.7 mi WNW 2.3 mph - N/A   Partly Cloudy
11:10 PM 78.8 °F - 68.0 °F 69% 29.89 in 3.7 mi West 2.3 mph - N/A   Partly Cloudy
11:30 PM 75 °F - 70 °F 79% 29.85 in 2 mi WNW 3.5 mph - -   Scattered Clouds